User: anonymous   Login
Location: Unspecified
(0.0000°N, 0.0000°E)
Time: 19:47:25
(UTC+00:00)
Language:

Cosmos 2088 - Orbit

View from above orbital plane
View from above orbital plane
View from above satellite
View from above satellite

Ground track
Ground track

The orbit data is extracted from the following two-line orbital elements,

1 20720U 90066A   18050.68085022 +.00000014 +00000-0 +23461-3 0  9991
2 20720 073.5998 144.9359 0026349 285.2284 180.6534 12.40734092248142
Epoch (UTC): 19 February 2018 16:20:25
Eccentricity: 0.0026349
inclination: 73.5998°
perigee height: 1483 km
apogee height: 1524 km
right ascension of ascending node: 144.9359°
argument of perigee: 285.2284°
revolutions per day: 12.40734092
mean anomaly at epoch: 180.6534°
orbit number at epoch: 24814

The dashed part of the orbit path shows where the satellite is in the earth's shadow,  

DLR